Regional Weather Roundup
Issued by NWS

Home | Current Version | Previous Version | Graphics & Text | Print | Product List | Glossary On
Versions: 1 2 3 4 5 6 7 8 9 10 11 12 13 14 15 16 17 18 19 20 21 22 23 24 25 26 27 28 29 30 31 32 33 34 35 36 37 38 39 40 41 42 43 44 45 46 47 48 49 50
000
ASUS45 KCYS 271010
RWRWY

WYOMING REGIONAL WEATHER ROUNDUP
NATIONAL WEATHER SERVICE CHEYENNE WY
400 AM MDT MON JUL 27 2015

NOTE:  "FAIR" INDICATES FEW OR NO CLOUDS BELOW 12,000 FEET
WITH NO SIGNIFICANT WEATHER AND/OR OBSTRUCTIONS TO VISIBILITY.

WYZ001-271100-
YELLOWSTONE NATIONAL PARK

CITY           SKY/WX    TMP DP  RH WIND       PRES   REMARKS
LK YELLOWSTONE   N/A     43  38  82 W3        30.04S
W YELLOWSTONE  NOT AVBL

$$
WYZ002>013-054>058-071-098>099-271100-
NORTHERN WYOMING

CITY           SKY/WX    TMP DP  RH WIND       PRES   REMARKS
JACKSON        FAIR      45  39  81 N8        29.94S
CODY           FAIR      61  46  59 NE13      29.86S
GREYBULL       FAIR      63  41  44 VRB3      29.76R
WORLAND        FAIR      62  35  36 E7        29.77S
SHERIDAN       FAIR      55  45  68 CALM      29.75F
BUFFALO        FAIR      61  39  44 CALM      29.82S
GILLETTE       FAIR      68  53  58 S16       29.79S
HULETT         FAIR      63  55  77 CALM      29.82F
NEWCASTLE      FAIR      70  50  49 E23G31    29.87S

$$
WYZ014>020-022>026-101>103-271100-
CENTRAL WYOMING

CITY           SKY/WX    TMP DP  RH WIND       PRES   REMARKS
BIG PINEY      FAIR      41  30  65 NW5       30.01F
PINEDALE       FAIR      41  34  75 NW3       30.02F
DUBOIS         FAIR      45  28  53 NW9       30.00F
LANDER         FAIR      72  32  23 SW10      29.85F
RIVERTON       FAIR      69  24  18 SE7       29.88S
CASPER         FAIR      75  31  19 SW13      29.89R
DOUGLAS        FAIR      66  54  65 SE20      29.89S

$$
WYZ021-027>030-104>119-271100-
SOUTHERN WYOMING

CITY           SKY/WX    TMP DP  RH WIND       PRES   REMARKS
EVANSTON       FAIR      62  24  23 S9        30.01F
KEMMERER       FAIR      55  28  35 S8        30.02F
FORT BRIDGER   SUNNY     64  32  29 SW12      30.03F
ROCK SPRINGS   FAIR      68  40  35 S7        30.00F
DIXON          FAIR      59  41  51 E3        30.08S
RAWLINS        MOCLDY    68  39  34 E7        30.05S
SARATOGA       FAIR      63  37  39 S9        30.09S
LARAMIE        FAIR      55  48  77 VRB7      30.10S
CHEYENNE       FAIR      56  52  86 W7        30.02F
TORRINGTON     FAIR      61  58  90 E9        29.91F
PINE BLUFFS    FAIR      54  52  94 CALM      29.98S

$$


USA.gov is the U.S. government's official web portal to all federal, state and local government web resources and services.